Lubbock, TX

12:22 PM CDT on May 25, 2017 (GMT -0500)
Lubbock International

Weather History for KLBB - April, 2014

Change the Weather History Date:

Sunday, April 20, 2014

  Actual Average Record
Temperature  
Mean Temperature 66 °F 62 °F  
Max Temperature 78 °F 77 °F 93 °F (1925)
Min Temperature 53 °F 47 °F 30 °F (1933)
Degree Days  
Heating Degree Days 0 5  
Month to date heating degree days 142 144  
Since 1 July heating degree days 3434 3298  
Cooling Degree Days 1 2  
Month to date cooling degree days 20 25  
Year to date cooling degree days 23 32  
Growing Degree Days 16 (Base 50)    
Moisture  
Dew Point 54 °F    
Average Humidity 66    
Maximum Humidity 93    
Minimum Humidity 38    
Precipitation  
Precipitation 0.03 in 0.05 in 1.01 in (1937)
Month to date precipitation 0.57 0.86  
Year to date precipitation 0.90 3.36  
Snow  
Snow 0.00 in 0.00 in 0.00 in (2002)
Month to date snowfall T 0.2  
Since 1 July snowfall 4.2 8.2  
Snow Depth 0.00 in    
Sea Level Pressure  
Sea Level Pressure 29.97 in    
Wind  
Wind Speed 11 mph (SW)    
Max Wind Speed 25 mph    
Max Gust Speed 31 mph    
Visibility 8 miles    
Events Rain , Thunderstorm    
T = Trace of Precipitation, MM = Missing Value Source: NWS Daily Summary

Daily Weather History Graph

Daily Weather History Graph

Search for Another Location

Airport or City:

Trip Planner

Search our weather history database for the weather conditions in past years. The results will help you decide how hot, cold, wet, or windy it might be!

Date:

Astronomy

Apr. 20, 2014 Rise Set
Actual Time 7:10 AM CDT 8:22 PM CDT
Civil Twilight 6:44 AM CDT 8:48 PM CDT
Nautical Twilight 6:14 AM CDT 9:18 PM CDT
Astronomical Twilight 5:42 AM CDT 9:50 PM CDT
Moon 12:57 AM CDT (4/20) 11:38 AM CDT (4/20)
Length of Visible Light 14h 03m
Length of Day
13h 11m
Waning Gibbous, 68% of the Moon is Illuminated
Apr 20
Waning Gibbous
Apr 22
Last Quarter
Apr 29
New
May 6
First Quarter
May 14
Full

Hourly Weather History & Observations

Time (CDT) Temp. Dew Point Humidity Pressure Visibility Wind Dir Wind Speed Gust Speed Precip Events Conditions
12:53 AM 59.0 °F 54.0 °F 83% 29.94 in 10.0 mi South 11.5 mph - 0.00 in   Overcast
1:53 AM 57.0 °F 55.0 °F 93% 29.95 in 9.0 mi SW 10.4 mph - N/A   Mostly Cloudy
2:33 AM 57.0 °F 55.0 °F 93% 30.07 in 8.0 mi West 9.2 mph - N/A   Mostly Cloudy
2:53 AM 57.0 °F 55.0 °F 93% 29.96 in 8.0 mi SW 10.4 mph - N/A   Scattered Clouds
3:53 AM 55.9 °F 54.0 °F 93% 29.97 in 8.0 mi SW 8.1 mph - N/A   Scattered Clouds
4:53 AM 55.0 °F 53.1 °F 93% 29.99 in 7.0 mi WSW 4.6 mph - N/A   Scattered Clouds
5:53 AM 53.1 °F 52.0 °F 96% 30.00 in 6.0 mi West 4.6 mph - N/A   Scattered Clouds
6:39 AM 54.0 °F 53.1 °F 97% 30.08 in 6.0 mi WSW 6.9 mph - N/A   Mostly Cloudy
6:53 AM 55.0 °F 54.0 °F 96% 30.00 in 7.0 mi WSW 5.8 mph - N/A   Overcast
7:04 AM 55.0 °F 54.0 °F 96% 30.08 in 6.0 mi SW 4.6 mph - N/A   Overcast
7:53 AM 55.0 °F 54.0 °F 96% 30.02 in 4.0 mi South 4.6 mph - N/A   Overcast
8:41 AM 57.0 °F 55.0 °F 93% 30.09 in 5.0 mi SSW 5.8 mph - N/A   Scattered Clouds
8:53 AM 57.9 °F 55.9 °F 93% 30.01 in 5.0 mi SSW 6.9 mph - N/A   Mostly Cloudy
9:05 AM 57.9 °F 55.0 °F 90% 30.10 in 5.0 mi SSW 8.1 mph - N/A   Mostly Cloudy
9:20 AM 59.0 °F 55.9 °F 90% 30.10 in 5.0 mi SW 9.2 mph - N/A   Mostly Cloudy
9:35 AM 59.0 °F 55.9 °F 90% 30.10 in 6.0 mi SW 10.4 mph - N/A   Mostly Cloudy
9:42 AM 60.1 °F 55.9 °F 86% 30.10 in 6.0 mi SSW 11.5 mph - N/A   Mostly Cloudy
9:53 AM 60.1 °F 55.9 °F 86% 30.01 in 6.0 mi SSW 10.4 mph - N/A   Overcast
10:10 AM 62.1 °F 55.9 °F 80% 30.09 in 6.0 mi SW 13.8 mph - N/A   Mostly Cloudy
10:53 AM 64.0 °F 55.9 °F 75% 30.00 in 7.0 mi SW 13.8 mph - N/A   Mostly Cloudy
11:53 AM 66.9 °F 57.0 °F 70% 29.99 in 8.0 mi SW 16.1 mph - N/A   Mostly Cloudy
12:53 PM 70.0 °F 55.9 °F 61% 29.95 in 10.0 mi SSW 19.6 mph 27.6 mph N/A   Mostly Cloudy
1:53 PM 71.1 °F 54.0 °F 55% 29.93 in 10.0 mi SW 16.1 mph - N/A   Mostly Cloudy
2:53 PM 73.0 °F 55.0 °F 53% 29.90 in 10.0 mi SSW 17.3 mph 25.3 mph N/A   Scattered Clouds
3:53 PM 75.9 °F 54.0 °F 46% 29.86 in 10.0 mi SSW 19.6 mph 26.5 mph N/A   Scattered Clouds
4:53 PM 72.0 °F 57.0 °F 59% 29.85 in 10.0 mi SSW 15.0 mph - 0.03 in   Mostly Cloudy
5:03 PM 73.9 °F 55.0 °F 52% 29.95 in 10.0 mi SW 20.7 mph 28.8 mph N/A Thunderstorm Thunderstorm
5:36 PM 73.9 °F 52.0 °F 46% 29.95 in 10.0 mi SSW 19.6 mph - 0.00 in   Mostly Cloudy
5:53 PM 75.9 °F 48.9 °F 38% 29.84 in 10.0 mi SSW 18.4 mph 24.2 mph 0.00 in   Mostly Cloudy
6:53 PM 75.9 °F 48.9 °F 38% 29.84 in 10.0 mi SSW 13.8 mph - N/A   Mostly Cloudy
7:53 PM 73.9 °F 48.0 °F 40% 29.84 in 10.0 mi SSW 16.1 mph - N/A   Mostly Cloudy
8:20 PM 70.0 °F 48.0 °F 46% 29.97 in 10.0 mi NNW 20.7 mph 27.6 mph N/A Rain Light Rain
8:53 PM 64.0 °F 53.1 °F 67% 29.88 in 10.0 mi NNE 4.6 mph - 0.00 in   Mostly Cloudy
9:53 PM 62.1 °F 55.0 °F 78% 29.89 in 10.0 mi NNW 3.5 mph - N/A   Partly Cloudy
10:53 PM 59.0 °F 55.0 °F 87% 29.91 in 10.0 mi WSW 6.9 mph - N/A   Partly Cloudy
11:53 PM 57.9 °F 54.0 °F 87% 29.90 in 10.0 mi NW 4.6 mph - N/A   Clear